Home   Weather   Greifswald   Past weeks
Flag for Germany

Past Weather in Greifswald, Mecklenburg-Western Pomerania, Germany — Yesterday and Last 2 Weeks

Now
40 °F

Overcast.


Feels Like: 34 °F
Forecast: 44 / 34 °F
Wind: 8 mph from Southwest

Location: Trollenhagen

Current Time: Dec 14, 2019 at 7:58:06 pm

Latest Report: Dec 14, 2019 at 6:00 pm


Visibility: N/A

Pressure: 29.21 "Hg

Humidity: 92%

Dew Point: 38 °F

Location of GreifswaldLocation

Past Weather in Greifswald — Graph

°F

Greifswald Temperature Yesterday

Maximum temperature yesterday: 36 °F (at 12:00 am)
Minimum temperature yesterday: 29 °F (at 8:00 pm)
Average temperature yesterday: 33 °F

High & Low Weather Summary for the Past Weeks

 TemperatureHumidityPressure
High49 °F (Dec 8, 6:00 pm)100% (Dec 1, 2:00 am)30.30 "Hg (Dec 1, 2:00 am)
Low29 °F (Dec 13, 8:00 pm)73% (Dec 11, 8:00 am)29.03 "Hg (Dec 13, 2:00 pm)
Average38 °F91%29.79 "Hg
* Reported Nov 29 6:00 pm — Dec 14 6:00 pm, Greifswald. Weather by CustomWeather, © 2019

Note: Actual official high and low records may vary slightly from our data, if they occured in-between our weather recording intervals... More about our weather records

Greifswald Weather History for the Previous 24 Hours

Scroll right to see more
 ConditionsComfort  
Time TempWeatherWind HumidityBarometerVisibility
6:00 pm
Sat, Dec 14
40 °FOvercast.8 mph92%29.21 "HgN/A
5:00 pm39 °FPassing clouds.7 mph92%29.21 "HgN/A
3:00 pm38 °FOvercast.6 mph94%29.15 "HgN/A
2:00 pm39 °FOvercast.6 mph93%29.12 "HgN/A
12:00 pm39 °FLow clouds.6 mph93%29.09 "HgN/A
11:00 am38 °FLow clouds.5 mph94%29.06 "HgN/A
9:00 am35 °FLow clouds.5 mph98%29.06 "HgN/A
8:00 am34 °FLow clouds.N/A98%29.03 "HgN/A
6:00 am33 °FLow clouds.3 mph98%29.03 "HgN/A
5:00 am34 °FLow clouds.3 mph97%29.03 "HgN/A
3:00 am33 °FOvercast.2 mph94%29.06 "HgN/A
2:00 am33 °FOvercast.3 mph93%29.06 "HgN/A
12:00 am33 °FOvercast.2 mph96%29.06 "HgN/A
11:00 pm
Fri, Dec 13
33 °FOvercast.3 mph96%29.06 "HgN/A
9:00 pm32 °FOvercast.2 mph96%29.06 "HgN/A
8:00 pm29 °FPassing clouds.2 mph96%29.06 "HgN/A
Weather by CustomWeather, © 2019

See weather overview

Advertising